Перигё

Франция     45°10′57″N   0°43′09″E
темп.,
°C
ветер,
м/с
пор.,
м/с
влажн.,
%
обл.,
%
осадки,
мм/ч
давл.,
гПа
погр.,
м
20 января, ср
ср2001:00+4ююв5128175 0.0 1013323
04:00+4ююв51477100 0.0 1009435
07:00+4ююв41578100 0.0 1007475
10:00+6ююв41480100 0.0 1006531
13:00+11ююв6126792 0.0 1004744
16:00+9ююв6127687 0.3 1002479
19:00+9ююв6157893 0.3 1001657
22:00+10ю61570100 0.0 10011015
21 января, чт
чт2101:00+9ююз6157499 0.1 1002849
04:00+8ююз6158584 0.4 1002850
07:00+9юз5119389 2.9 1004567
10:00+10ююз41094100 0.5 1005731
13:00+11ю61085100 0.6 1004940
16:00+10ююз81890100 4.4 10011405
19:00+10юз61488100 5.9 1001986
22:00+9юз41689100 5.6 10011374
22 января, пт
пт2201:00+8ююз41492100 6.9 10001291
04:00+7ююз4159088 0.8 9981048
07:00+8ююв4109183 0.8 996336
10:00+8ю51195100 6.8 994748
13:00+9юз31086100 14.7 993981
16:00+8зюз3995100 2.1 993816
19:00+6сз61287100 2.9 10001140
22:00+4зюз3129195 0.2 1004599
23 января, сб
сб2301:00+4юз399197 0.6 1005293
04:00+3ю399239 0.1 1002267
07:00+5зсз7159170 5.6 10001164
10:00+6зсз71485100 0.8 10021253
13:00+7зсз7127390 1.4 10041558
16:00+7з597497 0.6 10041330
19:00+4юз248798 0.8 1004107
22:00+4ю1288100 0.0 100328
24 января, вс
вс2401:00+3юз1289100 0.0 100323
04:00+4зюз3894100 0.2 1005370
07:00+4зюз3893100 0.4 1006494
10:00+5зюз499199 0.4 1007775
13:00+4зсз599699 1.8 1007661
16:00+5з51196100 2.0 1007943
19:00+4сз41097100 5.3 1008808
22:00+3з31091100 0.9 1010705